PulseSat

PulseSat

INTELSAT 805 (IS-805)

Last updated on Dec. 16, 2018, 12:08 a.m. UTC

1 25371U 98037A   18349.45188337 -.00000018  00000-0  00000+0 0  9998
2 25371   1.1959  91.8328 0003287 165.2967 158.7071  1.00271898 75087
UTC
Height (km)
Latitude
Longitude
Inclination
Orbital Period

Next 30 passes for location: Hong Kong

Rise time Rise Azimuth (degrees) Set time Set Azimuth (degrees) Duration Max altitude (degrees)

No matching passes for this satellites

PulseSat

PulseSat is the new satellites software and hardware trackering solution by Pulsely.
Satellite Two Line Element Set source: US Air Force Space Command

Download PulseSat for iOS
© 2017 Pulsely Limited